Time,TemperatureF,DewpointF,PressureIn,WindDirection,WindDirectionDegrees,WindSpeedMPH,WindSpeedGustMPH,Humidity,HourlyPrecipIn,Conditions,Clouds,dailyrainin,SolarRadiationWatts/m^2,SoftwareType,DateUTC
2013-01-03 00:02:00,12.0,9.0,-100.00,East,81,2.0,4.0,86,0.00,,,0.00,0.000000,,2013-01-03 08:02:00,
2013-01-03 00:11:00,12.0,9.0,-100.00,East,81,2.0,4.0,86,0.00,,,0.00,0.000000,,2013-01-03 08:11:00,
2013-01-03 00:22:00,12.0,9.0,-100.00,East,81,2.0,4.0,86,0.00,,,0.00,0.000000,,2013-01-03 08:22:00,
2013-01-03 00:32:00,12.0,9.0,-100.00,East,81,2.0,4.0,86,0.00,,,0.00,0.000000,,2013-01-03 08:32:00,
2013-01-03 00:53:00,12.0,9.0,-100.00,ESE,117,1.0,3.0,86,0.00,,,-99.99,0.000000,,2013-01-03 08:53:00,
2013-01-03 01:02:00,12.0,9.0,-100.00,ESE,117,1.0,3.0,86,0.00,,,-99.99,0.000000,,2013-01-03 09:02:00,
2013-01-03 01:12:00,12.0,9.0,-100.00,ESE,117,1.0,3.0,86,0.00,,,-99.99,0.000000,,2013-01-03 09:12:00,
2013-01-03 01:22:00,12.0,9.0,-100.00,ESE,117,1.0,3.0,86,0.00,,,-99.99,0.000000,,2013-01-03 09:22:00,
2013-01-03 01:33:00,12.0,9.0,-100.00,ESE,117,1.0,3.0,86,0.00,,,-99.99,0.000000,,2013-01-03 09:33:00,
2013-01-03 01:53:00,12.0,9.0,-100.00,SE,139,1.0,2.0,86,0.00,,,0.00,0.000000,,2013-01-03 09:53:00,
2013-01-03 02:02:00,12.0,9.0,-100.00,SE,139,1.0,2.0,86,0.00,,,0.00,0.000000,,2013-01-03 10:02:00,
2013-01-03 02:12:00,12.0,9.0,-100.00,SE,139,1.0,2.0,86,0.00,,,0.00,0.000000,,2013-01-03 10:12:00,
2013-01-03 02:22:00,12.0,9.0,-100.00,SE,139,1.0,2.0,86,0.00,,,0.00,0.000000,,2013-01-03 10:22:00,
2013-01-03 02:32:00,12.0,9.0,-100.00,SE,139,1.0,2.0,86,0.00,,,0.00,0.000000,,2013-01-03 10:32:00,
2013-01-03 02:53:00,11.0,8.0,-100.00,SE,138,0.0,0.0,86,0.00,,,0.00,0.000000,,2013-01-03 10:53:00,
2013-01-03 03:02:00,11.0,8.0,-100.00,SE,138,0.0,0.0,86,0.00,,,0.00,0.000000,,2013-01-03 11:02:00,
2013-01-03 03:12:00,11.0,8.0,-100.00,SE,138,0.0,0.0,86,0.00,,,0.00,0.000000,,2013-01-03 11:12:00,
2013-01-03 03:22:00,11.0,8.0,-100.00,SE,138,0.0,0.0,86,0.00,,,0.00,0.000000,,2013-01-03 11:22:00,
2013-01-03 03:32:00,11.0,8.0,-100.00,SE,138,0.0,0.0,86,0.00,,,0.00,0.000000,,2013-01-03 11:32:00,
2013-01-03 03:53:00,11.0,7.0,-100.00,SE,124,0.0,0.0,85,0.00,,,-99.99,0.000000,,2013-01-03 11:53:00,
2013-01-03 04:02:00,11.0,7.0,-100.00,SE,124,0.0,0.0,85,0.00,,,-99.99,0.000000,,2013-01-03 12:02:00,
2013-01-03 04:12:00,11.0,7.0,-100.00,SE,124,0.0,0.0,85,0.00,,,-99.99,0.000000,,2013-01-03 12:12:00,
2013-01-03 04:22:00,11.0,7.0,-100.00,SE,124,0.0,0.0,85,0.00,,,-99.99,0.000000,,2013-01-03 12:22:00,
2013-01-03 04:32:00,11.0,7.0,-100.00,SE,124,0.0,0.0,85,0.00,,,-99.99,0.000000,,2013-01-03 12:32:00,
2013-01-03 04:53:00,11.0,7.0,-100.00,SSE,155,0.0,0.0,85,0.00,,,0.00,0.000000,,2013-01-03 12:53:00,
2013-01-03 05:02:00,11.0,7.0,-100.00,SSE,155,0.0,0.0,85,0.00,,,0.00,0.000000,,2013-01-03 13:02:00,
2013-01-03 05:12:00,11.0,7.0,-100.00,SSE,155,0.0,0.0,85,0.00,,,0.00,0.000000,,2013-01-03 13:12:00,
2013-01-03 05:22:00,11.0,7.0,-100.00,SSE,155,0.0,0.0,85,0.00,,,0.00,0.000000,,2013-01-03 13:22:00,
2013-01-03 05:32:00,11.0,7.0,-100.00,SSE,155,0.0,0.0,85,0.00,,,0.00,0.000000,,2013-01-03 13:32:00,
2013-01-03 05:53:00,10.0,6.0,-100.00,SSE,157,0.0,0.0,85,0.00,,,-99.99,0.000000,,2013-01-03 13:53:00,
2013-01-03 06:02:00,10.0,6.0,-100.00,SSE,157,0.0,0.0,85,0.00,,,-99.99,0.000000,,2013-01-03 14:02:00,
2013-01-03 06:12:00,10.0,6.0,-100.00,SSE,157,0.0,0.0,85,0.00,,,-99.99,0.000000,,2013-01-03 14:12:00,
2013-01-03 06:22:00,10.0,6.0,-100.00,SSE,157,0.0,0.0,85,0.00,,,-99.99,0.000000,,2013-01-03 14:22:00,
2013-01-03 06:32:00,10.0,6.0,-100.00,SSE,157,0.0,0.0,85,0.00,,,-99.99,0.000000,,2013-01-03 14:32:00,
2013-01-03 06:53:00,10.0,6.0,-100.00,SE,125,0.0,0.0,84,0.00,,,-99.99,0.000000,,2013-01-03 14:53:00,
2013-01-03 07:02:00,10.0,6.0,-100.00,SE,125,0.0,0.0,84,0.00,,,-99.99,0.000000,,2013-01-03 15:02:00,
2013-01-03 07:12:00,10.0,6.0,-100.00,SE,125,0.0,0.0,84,0.00,,,-99.99,0.000000,,2013-01-03 15:12:00,
2013-01-03 07:22:00,10.0,6.0,-100.00,SE,125,0.0,0.0,84,0.00,,,-99.99,0.000000,,2013-01-03 15:22:00,
2013-01-03 07:33:00,10.0,6.0,-100.00,SE,125,0.0,0.0,84,0.00,,,-99.99,0.000000,,2013-01-03 15:33:00,
2013-01-03 07:53:00,10.0,6.0,-100.00,SE,137,0.0,0.0,84,0.00,,,0.00,0.000000,,2013-01-03 15:53:00,
2013-01-03 08:03:00,10.0,6.0,-100.00,SE,137,0.0,0.0,84,0.00,,,0.00,0.000000,,2013-01-03 16:03:00,
2013-01-03 08:12:00,10.0,6.0,-100.00,SE,137,0.0,0.0,84,0.00,,,0.00,0.000000,,2013-01-03 16:12:00,
2013-01-03 08:22:00,10.0,6.0,-100.00,SE,137,0.0,0.0,84,0.00,,,0.00,0.000000,,2013-01-03 16:22:00,
2013-01-03 08:32:00,10.0,6.0,-100.00,SE,137,0.0,0.0,84,0.00,,,0.00,0.000000,,2013-01-03 16:32:00,
2013-01-03 08:53:00,10.0,6.0,-100.00,SSE,163,0.0,0.0,85,0.00,,,0.00,8.000000,,2013-01-03 16:53:00,
2013-01-03 09:03:00,10.0,6.0,-100.00,SSE,163,0.0,0.0,85,0.00,,,0.00,8.000000,,2013-01-03 17:03:00,
2013-01-03 09:12:00,10.0,6.0,-100.00,SSE,163,0.0,0.0,85,0.00,,,0.00,8.000000,,2013-01-03 17:12:00,
2013-01-03 09:22:00,10.0,6.0,-100.00,SSE,163,0.0,0.0,85,0.00,,,0.00,8.000000,,2013-01-03 17:22:00,
2013-01-03 09:32:00,10.0,6.0,-100.00,SSE,163,0.0,0.0,85,0.00,,,0.00,8.000000,,2013-01-03 17:32:00,
2013-01-03 09:53:00,14.0,10.0,-100.00,SSE,157,0.0,1.0,84,0.00,,,0.00,73.000000,,2013-01-03 17:53:00,
2013-01-03 10:03:00,14.0,10.0,-100.00,SSE,157,0.0,1.0,84,0.00,,,0.00,73.000000,,2013-01-03 18:03:00,
2013-01-03 10:12:00,14.0,10.0,-100.00,SSE,157,0.0,1.0,84,0.00,,,0.00,73.000000,,2013-01-03 18:12:00,
2013-01-03 10:22:00,14.0,10.0,-100.00,SSE,157,0.0,1.0,84,0.00,,,0.00,73.000000,,2013-01-03 18:22:00,
2013-01-03 10:33:00,14.0,10.0,-100.00,SSE,157,0.0,1.0,84,0.00,,,0.00,73.000000,,2013-01-03 18:33:00,
2013-01-03 10:53:00,18.0,14.0,-100.00,SE,127,0.0,2.0,83,0.00,,,0.00,163.000000,,2013-01-03 18:53:00,
2013-01-03 11:03:00,18.0,14.0,-100.00,SE,127,0.0,2.0,83,0.00,,,0.00,163.000000,,2013-01-03 19:03:00,
2013-01-03 11:12:00,18.0,14.0,-100.00,SE,127,0.0,2.0,83,0.00,,,0.00,163.000000,,2013-01-03 19:12:00,
2013-01-03 11:57:00,26.0,22.0,-100.00,East,94,1.0,1.0,86,0.00,,,0.00,283.000000,,2013-01-03 19:57:00,
2013-01-03 12:02:00,26.0,22.0,-100.00,East,94,1.0,1.0,86,0.00,,,0.00,283.000000,,2013-01-03 20:02:00,
2013-01-03 12:33:00,26.0,22.0,-100.00,East,94,1.0,1.0,86,0.00,,,0.00,283.000000,,2013-01-03 20:33:00,
2013-01-03 12:34:00,20.0,16.0,-100.00,SW,214,1.0,2.0,84,0.00,,,0.00,368.000000,,2013-01-03 20:34:00,
2013-01-03 12:53:00,20.0,16.0,-100.00,SW,214,1.0,2.0,84,0.00,,,0.00,368.000000,,2013-01-03 20:53:00,
2013-01-03 13:02:00,20.0,16.0,-100.00,SW,214,1.0,2.0,84,0.00,,,0.00,368.000000,,2013-01-03 21:02:00,
2013-01-03 13:12:00,20.0,16.0,-100.00,SW,214,1.0,2.0,84,0.00,,,0.00,368.000000,,2013-01-03 21:12:00,
2013-01-03 13:22:00,20.0,16.0,-100.00,SW,214,1.0,2.0,84,0.00,,,0.00,368.000000,,2013-01-03 21:22:00,
2013-01-03 13:53:00,19.0,14.0,-100.00,SW,230,2.0,6.0,80,0.01,,,0.01,407.000000,,2013-01-03 21:53:00,
2013-01-03 14:02:00,19.0,14.0,-100.00,SW,230,2.0,6.0,80,0.01,,,0.01,407.000000,,2013-01-03 22:02:00,
2013-01-03 14:12:00,19.0,14.0,-100.00,SW,230,2.0,6.0,80,0.01,,,0.01,407.000000,,2013-01-03 22:12:00,
2013-01-03 14:22:00,19.0,14.0,-100.00,SW,230,2.0,6.0,80,0.01,,,0.01,407.000000,,2013-01-03 22:22:00,
2013-01-03 14:32:00,19.0,14.0,-100.00,SW,230,2.0,6.0,80,0.01,,,0.01,407.000000,,2013-01-03 22:32:00,
2013-01-03 14:52:00,21.0,15.0,-100.00,SW,228,5.0,8.0,77,0.00,,,0.01,194.000000,,2013-01-03 22:52:00,
2013-01-03 15:02:00,21.0,15.0,-100.00,SW,228,5.0,8.0,77,0.00,,,0.01,194.000000,,2013-01-03 23:02:00,
2013-01-03 15:12:00,21.0,15.0,-100.00,SW,228,5.0,8.0,77,0.00,,,0.01,194.000000,,2013-01-03 23:12:00,
2013-01-03 15:22:00,21.0,15.0,-100.00,SW,228,5.0,8.0,77,0.00,,,0.01,194.000000,,2013-01-03 23:22:00,
2013-01-03 15:32:00,21.0,15.0,-100.00,SW,228,5.0,8.0,77,0.00,,,0.01,194.000000,,2013-01-03 23:32:00,
2013-01-03 15:53:00,20.0,13.0,-100.00,SW,225,6.0,9.0,74,0.00,,,0.01,155.000000,,2013-01-03 23:53:00,
2013-01-03 16:03:00,20.0,13.0,-100.00,SW,225,6.0,9.0,74,0.00,,,0.01,155.000000,,2013-01-04 00:03:00,
2013-01-03 16:12:00,20.0,13.0,-100.00,SW,225,6.0,9.0,74,0.00,,,0.01,155.000000,,2013-01-04 00:12:00,
2013-01-03 16:22:00,20.0,13.0,-100.00,SW,225,6.0,9.0,74,0.00,,,0.01,155.000000,,2013-01-04 00:22:00,
2013-01-03 16:32:00,20.0,13.0,-100.00,SW,225,6.0,9.0,74,0.00,,,0.01,155.000000,,2013-01-04 00:32:00,
2013-01-03 16:53:00,17.0,11.0,-100.00,WSW,241,5.0,9.0,76,0.00,,,0.01,37.000000,,2013-01-04 00:53:00,
2013-01-03 17:02:00,17.0,11.0,-100.00,WSW,241,5.0,9.0,76,0.00,,,0.01,37.000000,,2013-01-04 01:02:00,
2013-01-03 17:12:00,17.0,11.0,-100.00,WSW,241,5.0,9.0,76,0.00,,,0.01,37.000000,,2013-01-04 01:12:00,
2013-01-03 17:22:00,17.0,11.0,-100.00,WSW,241,5.0,9.0,76,0.00,,,0.01,37.000000,,2013-01-04 01:22:00,
2013-01-03 17:32:00,17.0,11.0,-100.00,WSW,241,5.0,9.0,76,0.00,,,0.01,37.000000,,2013-01-04 01:32:00,
2013-01-03 17:52:00,18.0,11.0,-100.00,SW,231,5.0,9.0,74,0.00,,,0.01,1.000000,,2013-01-04 01:52:00,
2013-01-03 18:02:00,18.0,11.0,-100.00,SW,231,5.0,9.0,74,0.00,,,0.01,1.000000,,2013-01-04 02:02:00,
2013-01-03 18:12:00,18.0,11.0,-100.00,SW,231,5.0,9.0,74,0.00,,,0.01,1.000000,,2013-01-04 02:12:00,
2013-01-03 18:22:00,18.0,11.0,-100.00,SW,231,5.0,9.0,74,0.00,,,0.01,1.000000,,2013-01-04 02:22:00,
2013-01-03 18:32:00,18.0,11.0,-100.00,SW,231,5.0,9.0,74,0.00,,,0.01,1.000000,,2013-01-04 02:32:00,
2013-01-03 18:53:00,18.0,11.0,-100.00,WSW,237,6.0,10.0,75,-99.99,,,0.01,0.000000,,2013-01-04 02:53:00,
2013-01-03 19:02:00,18.0,11.0,-100.00,WSW,237,6.0,10.0,75,-99.99,,,0.01,0.000000,,2013-01-04 03:02:00,
2013-01-03 19:12:00,18.0,11.0,-100.00,WSW,237,6.0,10.0,75,-99.99,,,0.01,0.000000,,2013-01-04 03:12:00,
2013-01-03 19:22:00,18.0,11.0,-100.00,WSW,237,6.0,10.0,75,-99.99,,,0.01,0.000000,,2013-01-04 03:22:00,
2013-01-03 19:32:00,18.0,11.0,-100.00,WSW,237,6.0,10.0,75,-99.99,,,0.01,0.000000,,2013-01-04 03:32:00,
2013-01-03 19:53:00,19.0,12.0,-100.00,WSW,248,6.0,12.0,73,0.00,,,0.01,0.000000,,2013-01-04 03:53:00,
2013-01-03 20:02:00,19.0,12.0,-100.00,WSW,248,6.0,12.0,73,0.00,,,0.01,0.000000,,2013-01-04 04:02:00,
2013-01-03 20:12:00,19.0,12.0,-100.00,WSW,248,6.0,12.0,73,0.00,,,0.01,0.000000,,2013-01-04 04:12:00,
2013-01-03 20:22:00,19.0,12.0,-100.00,WSW,248,6.0,12.0,73,0.00,,,0.01,0.000000,,2013-01-04 04:22:00,
2013-01-03 20:32:00,19.0,12.0,-100.00,WSW,248,6.0,12.0,73,0.00,,,0.01,0.000000,,2013-01-04 04:32:00,
2013-01-03 20:52:00,20.0,12.0,-100.00,SW,234,7.0,12.0,70,0.00,,,0.01,0.000000,,2013-01-04 04:52:00,
2013-01-03 21:03:00,20.0,12.0,-100.00,SW,234,7.0,12.0,70,0.00,,,0.01,0.000000,,2013-01-04 05:03:00,
2013-01-03 21:12:00,20.0,12.0,-100.00,SW,234,7.0,12.0,70,0.00,,,0.01,0.000000,,2013-01-04 05:12:00,
2013-01-03 21:22:00,20.0,12.0,-100.00,SW,234,7.0,12.0,70,0.00,,,0.01,0.000000,,2013-01-04 05:22:00,
2013-01-03 21:32:00,20.0,12.0,-100.00,SW,234,7.0,12.0,70,0.00,,,0.01,0.000000,,2013-01-04 05:32:00,
2013-01-03 21:53:00,20.0,11.0,-100.00,WSW,241,8.0,14.0,69,0.00,,,0.01,0.000000,,2013-01-04 05:53:00,
2013-01-03 22:02:00,20.0,11.0,-100.00,WSW,241,8.0,14.0,69,0.00,,,0.01,0.000000,,2013-01-04 06:02:00,
2013-01-03 22:12:00,20.0,11.0,-100.00,WSW,241,8.0,14.0,69,0.00,,,0.01,0.000000,,2013-01-04 06:12:00,
2013-01-03 22:22:00,20.0,11.0,-100.00,WSW,241,8.0,14.0,69,0.00,,,0.01,0.000000,,2013-01-04 06:22:00,
2013-01-03 22:32:00,20.0,11.0,-100.00,WSW,241,8.0,14.0,69,0.00,,,0.01,0.000000,,2013-01-04 06:32:00,
2013-01-03 22:52:00,22.0,12.0,-100.00,WSW,242,8.0,16.0,65,0.00,,,-99.99,0.000000,,2013-01-04 06:52:00,
2013-01-03 23:02:00,22.0,12.0,-100.00,WSW,242,8.0,16.0,65,0.00,,,-99.99,0.000000,,2013-01-04 07:02:00,
2013-01-03 23:12:00,22.0,12.0,-100.00,WSW,242,8.0,16.0,65,0.00,,,-99.99,0.000000,,2013-01-04 07:12:00,
2013-01-03 23:22:00,22.0,12.0,-100.00,WSW,242,8.0,16.0,65,0.00,,,-99.99,0.000000,,2013-01-04 07:22:00,
2013-01-03 23:32:00,22.0,12.0,-100.00,WSW,242,8.0,16.0,65,0.00,,,-99.99,0.000000,,2013-01-04 07:32:00,
2013-01-03 23:52:00,24.0,13.0,-100.00,WSW,239,8.0,15.0,63,0.00,,,0.01,0.000000,,2013-01-04 07:52:00,